When you browse on this site, cookies collect data to enhance your experience and personalize the content and advertising you see.
Visit our Privacy Policy to learn more. By continuing to use the site, you agree to this use of cookies and data.
  • In France
  • List of Countries
  • For 7 days
  • Water Temperature
  • Weather Map
  • Weather Widgets
  • user-avatar
    Login

    Hourly Weather Brčko

    Today, 21 August, Wednesday

    Time Temperature Precipitation Wind Pressure Humidity
    00:00 +25°C° 0 mm 2 mps 755 mmHg 48%
    01:00 +24°C° 0 mm 2 mps 755 mmHg 50%
    02:00 +24°C° 0 mm 1 mps 755 mmHg 52%
    03:00 +23°C° 0 mm 1 mps 755 mmHg 54%
    04:00 +22°C° 0 mm 1 mps 755 mmHg 56%
    05:00 +24°C° 0 mm 1 mps 755 mmHg 53%
    06:00 +25°C° 0 mm 1 mps 755 mmHg 51%
    07:00 +26°C° 0 mm 1 mps 756 mmHg 48%
    08:00 +28°C° 0 mm 2 mps 756 mmHg 44%
    09:00 +30°C° 0 mm 3 mps 756 mmHg 40%
    10:00 +33°C° 0 mm 4 mps 756 mmHg 35%
    11:00 +34°C° 0 mm 4 mps 756 mmHg 34%
    12:00 +35°C° 0 mm 4 mps 756 mmHg 33%
    13:00 +37°C° 0 mm 4 mps 756 mmHg 32%
    14:00 +36°C° 0 mm 5 mps 756 mmHg 34%
    15:00 +36°C° 0 mm 5 mps 756 mmHg 35%
    16:00 +36°C° 0 mm 5 mps 756 mmHg 37%
    17:00 +33°C° 0 mm 5 mps 756 mmHg 45%
    18:00 +30°C° 0 mm 4 mps 756 mmHg 53%
    19:00 +28°C° 0 mm 4 mps 756 mmHg 61%
    20:00 +26°C° 0 mm 4 mps 757 mmHg 66%
    21:00 +25°C° 0 mm 3 mps 757 mmHg 71%
    22:00 +22°C° 0 mm 3 mps 757 mmHg 76%
    23:00 +21°C° 0 mm 3 mps 758 mmHg 78%

    Tomorrow, 22 August, Thursday

    Time Temperature Precipitation Wind Pressure Humidity
    00:00 +20°C° 0 mm 3 mps 758 mmHg 81%
    01:00 +19°C° 0 mm 3 mps 758 mmHg 83%
    02:00 +19°C° 0 mm 2 mps 758 mmHg 85%
    03:00 +18°C° 0 mm 2 mps 758 mmHg 86%
    04:00 +18°C° 0 mm 2 mps 758 mmHg 88%
    05:00 +19°C° 0 mm 2 mps 758 mmHg 84%
    06:00 +20°C° 0 mm 2 mps 758 mmHg 80%
    07:00 +21°C° 0 mm 2 mps 759 mmHg 76%
    08:00 +23°C° 0 mm 2 mps 759 mmHg 70%
    09:00 +25°C° 0 mm 2 mps 759 mmHg 64%
    10:00 +27°C° 0 mm 2 mps 758 mmHg 58%
    11:00 +29°C° 0 mm 2 mps 758 mmHg 54%
    12:00 +30°C° 0 mm 2 mps 758 mmHg 49%
    13:00 +32°C° 0 mm 2 mps 758 mmHg 45%
    14:00 +32°C° 0 mm 2 mps 757 mmHg 44%
    15:00 +33°C° 0 mm 3 mps 757 mmHg 43%
    16:00 +34°C° 0 mm 3 mps 757 mmHg 42%
    17:00 +31°C° 0 mm 2 mps 757 mmHg 48%
    18:00 +29°C° 0 mm 2 mps 757 mmHg 54%
    19:00 +27°C° 0 mm 2 mps 757 mmHg 60%
    20:00 +26°C° 0 mm 2 mps 758 mmHg 64%
    21:00 +25°C° 0 mm 1 mps 758 mmHg 68%
    22:00 +23°C° 0 mm 1 mps 758 mmHg 73%
    23:00 +23°C° 0 mm 1 mps 758 mmHg 75%

    Day after tomorrow, 23 August, Friday

    Time Temperature Precipitation Wind Pressure Humidity
    00:00 +22°C° 0 mm 1 mps 758 mmHg 78%
    01:00 +21°C° 0 mm 1 mps 758 mmHg 80%
    02:00 +21°C° 0 mm 1 mps 758 mmHg 82%
    03:00 +21°C° 0 mm 1 mps 758 mmHg 83%
    04:00 +20°C° 0 mm 1 mps 758 mmHg 85%
    05:00 +21°C° 0 mm 1 mps 758 mmHg 80%
    06:00 +23°C° 0 mm 1 mps 758 mmHg 74%
    07:00 +24°C° 0 mm 1 mps 759 mmHg 69%
    08:00 +26°C° 0 mm 1 mps 759 mmHg 61%
    09:00 +28°C° 0 mm 2 mps 759 mmHg 54%
    10:00 +31°C° 0 mm 2 mps 758 mmHg 46%
    11:00 +32°C° 0 mm 2 mps 758 mmHg 42%
    12:00 +35°C° 0 mm 3 mps 758 mmHg 38%
    13:00 +36°C° 0 mm 3 mps 757 mmHg 33%
    14:00 +36°C° 0 mm 3 mps 757 mmHg 33%
    15:00 +36°C° 0 mm 4 mps 756 mmHg 33%
    16:00 +36°C° 0 mm 4 mps 756 mmHg 32%
    17:00 +34°C° 0 mm 3 mps 756 mmHg 36%
    18:00 +31°C° 0 mm 3 mps 756 mmHg 40%
    19:00 +30°C° 0 mm 3 mps 756 mmHg 44%
    20:00 +28°C° 0 mm 2 mps 757 mmHg 49%
    21:00 +27°C° 0 mm 2 mps 757 mmHg 53%
    22:00 +25°C° 0 mm 1 mps 757 mmHg 58%
    23:00 +24°C° 0 mm 1 mps 757 mmHg 61%

    24 August, Saturday

    Time Temperature Precipitation Wind Pressure Humidity
    00:00 +24°C° 0 mm 1 mps 757 mmHg 64%
    01:00 +21°C° 0 mm 0 mps 756 mmHg 67%
    02:00 +20°C° 0 mm 0 mps 756 mmHg 70%
    03:00 +22°C° 0 mm 1 mps 756 mmHg 72%
    04:00 +21°C° 0 mm 1 mps 756 mmHg 75%
    05:00 +23°C° 0 mm 1 mps 756 mmHg 71%
    06:00 +24°C° 0 mm 1 mps 756 mmHg 67%
    07:00 +23°C° 0 mm 0 mps 756 mmHg 63%
    08:00 +28°C° 0 mm 1 mps 756 mmHg 54%
    09:00 +31°C° 0 mm 1 mps 756 mmHg 45%
    10:00 +34°C° 0 mm 1 mps 756 mmHg 37%
    11:00 +36°C° 0 mm 2 mps 756 mmHg 32%
    12:00 +38°C° 0 mm 2 mps 755 mmHg 28%
    13:00 +39°C° 0 mm 3 mps 755 mmHg 23%
    14:00 +38°C° 0 mm 3 mps 755 mmHg 24%
    15:00 +37°C° 0 mm 3 mps 754 mmHg 26%
    16:00 +36°C° 0 mm 3 mps 754 mmHg 27%
    17:00 +34°C° 0 mm 3 mps 754 mmHg 32%
    18:00 +31°C° 0 mm 2 mps 754 mmHg 36%
    19:00 +29°C° 0 mm 2 mps 754 mmHg 41%
    20:00 +28°C° 0 mm 2 mps 754 mmHg 45%
    21:00 +27°C° 0 mm 1 mps 755 mmHg 49%
    22:00 +26°C° 0 mm 1 mps 755 mmHg 54%
    23:00 +25°C° 0 mm 1 mps 755 mmHg 60%

    25 August, Sunday

    Time Temperature Precipitation Wind Pressure Humidity
    00:00 +24°C° 0 mm 1 mps 755 mmHg 66%
    01:00 +22°C° 0 mm 1 mps 755 mmHg 73%
    02:00 +22°C° 0 mm 1 mps 754 mmHg 75%
    03:00 +21°C° 0 mm 1 mps 754 mmHg 78%
    04:00 +21°C° 0 mm 1 mps 754 mmHg 81%
    05:00 +22°C° 0 mm 1 mps 755 mmHg 76%
    06:00 +23°C° 0 mm 1 mps 755 mmHg 72%
    07:00 +25°C° 0 mm 1 mps 755 mmHg 67%
    08:00 +27°C° 0 mm 1 mps 755 mmHg 58%
    09:00 +30°C° 0 mm 1 mps 755 mmHg 49%
    10:00 +33°C° 0 mm 1 mps 755 mmHg 40%
    11:00 +35°C° 0 mm 2 mps 754 mmHg 35%
    12:00 +37°C° 0 mm 2 mps 754 mmHg 31%
    13:00 +38°C° 0 mm 2 mps 754 mmHg 26%
    14:00 +38°C° 0 mm 2 mps 754 mmHg 25%
    15:00 +38°C° 0 mm 2 mps 753 mmHg 25%
    16:00 +38°C° 0 mm 2 mps 753 mmHg 24%
    17:00 +35°C° 0.1 mm 2 mps 753 mmHg 32%
    18:00 +31°C° 0.1 mm 3 mps 754 mmHg 41%
    19:00 +28°C° 0.1 mm 3 mps 754 mmHg 49%
    20:00 +26°C° 0.1 mm 2 mps 754 mmHg 58%
    21:00 +25°C° 0.1 mm 2 mps 754 mmHg 68%
    22:00 +23°C° 0.1 mm 1 mps 755 mmHg 77%
    23:00 +22°C° 0 mm 1 mps 754 mmHg 78%

    26 August, Monday

    Time Temperature Precipitation Wind Pressure Humidity
    00:00 +22°C° 0 mm 1 mps 754 mmHg 79%
    01:00 +22°C° 0 mm 1 mps 754 mmHg 80%
    02:00 +21°C° 0 mm 1 mps 754 mmHg 81%
    03:00 +21°C° 0 mm 1 mps 754 mmHg 82%
    04:00 +20°C° 0 mm 1 mps 754 mmHg 83%
    05:00 +22°C° 0 mm 1 mps 754 mmHg 77%
    06:00 +23°C° 0 mm 1 mps 754 mmHg 72%
    07:00 +24°C° 0 mm 1 mps 755 mmHg 66%
    08:00 +27°C° 0 mm 1 mps 755 mmHg 58%
    09:00 +30°C° 0 mm 1 mps 755 mmHg 49%
    10:00 +32°C° 0 mm 1 mps 755 mmHg 40%
    11:00 +35°C° 0 mm 2 mps 755 mmHg 37%
    12:00 +36°C° 0 mm 2 mps 754 mmHg 33%
    13:00 +38°C° 0 mm 3 mps 754 mmHg 29%
    14:00 +38°C° 0 mm 3 mps 754 mmHg 27%
    15:00 +38°C° 0 mm 3 mps 753 mmHg 26%
    16:00 +38°C° 0 mm 3 mps 753 mmHg 25%
    17:00 +35°C° 0.2 mm 2 mps 753 mmHg 32%
    18:00 +32°C° 0.2 mm 2 mps 753 mmHg 39%
    19:00 +29°C° 0.2 mm 2 mps 754 mmHg 46%
    20:00 +27°C° 0.2 mm 2 mps 754 mmHg 52%
    21:00 +26°C° 0.2 mm 1 mps 755 mmHg 59%
    22:00 +24°C° 0.2 mm 1 mps 755 mmHg 66%
    23:00 +23°C° 0 mm 1 mps 755 mmHg 69%
    Show more